CW8484 Weather Reports


Display with metric or nautical units.
time (UTC)temp
F
wind
direction
speed
MPH
gust
MPH
rain 1hr
in
rain 24hr
in
rain mn
in
humidity
%
barometer
mb
20260902152403 71 177 1.0 8.0 0.00 0.00 0.00 79 1017.2
20260902151425 70 167 2.0 9.0 0.00 0.00 0.00 79 1017.2
20260902150404 70 155 4.0 12.0 0.00 0.00 0.00 77 1017.1
20260902145424 70 155 4.0 9.0 0.00 0.00 0.00 77 1017.1
20260902144404 69 121 1.0 12.0 0.00 0.00 0.00 79 1017.3
20260902143403 69 192 1.0 12.0 0.00 0.00 0.00 79 1017.6
20260902142403 69 186 3.0 11.0 0.00 0.00 0.00 78 1017.6
20260902141404 69 182 5.0 14.0 0.00 0.00 0.00 77 1017.5
20260902140403 69 88 0.0 7.0 0.00 0.00 0.00 79 1017.2
20260902135404 69 193 1.0 9.0 0.00 0.00 0.00 78 1017.1
20260902134424 69 346 1.0 8.0 0.00 0.00 0.00 80 1017.1
20260902133403 68 180 1.0 8.0 0.00 0.00 0.00 80 1017.2
20260902132403 68 110 2.0 8.0 0.00 0.00 0.00 78 1016.9
20260902131403 67 192 1.0 9.0 0.00 0.00 0.00 80 1017.0
20260902130403 67 142 0.0 9.0 0.00 0.00 0.00 80 1017.0
20260902125403 67 143 1.0 10.0 0.00 0.00 0.00 80 1017.1
20260902124404 67 189 4.0 10.0 0.00 0.00 0.00 81 1016.9
20260902123403 66 154 2.0 7.0 0.00 0.00 0.00 82 1016.8
20260902122404 65 103 1.0 8.0 0.00 0.00 0.00 82 1016.8
20260902121403 65 159 1.0 6.0 0.00 0.00 0.00 82 1016.9
20260902120404 65 184 1.0 7.0 0.00 0.00 0.00 83 1017.1
20260902115403 64 151 2.0 6.0 0.00 0.00 0.00 84 1017.1
20260902114403 63 142 1.0 9.0 0.00 0.00 0.00 84 1017.2
20260902113403 63 150 0.0 4.0 0.00 0.00 0.00 85 1017.2
20260902112402 63 86 0.0 6.0 0.00 0.00 0.00 84 1017.2
20260902111403 63 121 2.0 8.0 0.00 0.00 0.00 84 1017.1
20260902110403 63 99 1.0 7.0 0.00 0.00 0.00 84 1017.2
20260902105403 63 191 1.0 5.0 0.00 0.00 0.00 84 1017.1
20260902104403 63 156 0.0 7.0 0.00 0.00 0.00 85 1017.2
20260902103403 63 133 1.0 6.0 0.00 0.00 0.00 84 1017.0
20260902102424 63 142 0.0 7.0 0.00 0.00 0.00 85 1016.9
20260902101403 63 140 1.0 5.0 0.00 0.00 0.00 85 1016.9
20260902100403 63 192 0.0 6.0 0.00 0.00 0.00 84 1016.6
20260902095403 63 138 1.0 10.0 0.00 0.00 0.00 85 1016.8
20260902094403 63 160 1.0 5.0 0.00 0.00 0.00 84 1016.8
20260902093403 63 146 0.0 2.0 0.00 0.00 0.00 84 1016.8
20260902092403 64 138 0.0 8.0 0.00 0.00 0.00 84 1016.8
20260902091402 64 146 1.0 9.0 0.00 0.00 0.00 84 1016.9
20260902090403 64 87 0.0 6.0 0.00 0.00 0.00 84 1016.8
20260902085403 64 178 1.0 6.0 0.00 0.00 0.00 84 1016.7
20260902084403 64 55 1.0 8.0 0.00 0.00 0.00 84 1016.7
20260902083404 64 90 1.0 6.0 0.00 0.00 0.00 84 1016.7
20260902082403 65 185 0.0 8.0 0.00 0.00 0.00 84 1016.8
20260902081402 64 174 0.0 7.0 0.00 0.00 0.00 84 1016.9
20260902080424 64 67 1.0 9.0 0.00 0.00 0.00 84 1016.7
20260902075403 64 137 1.0 7.0 0.00 0.00 0.00 84 1016.7
20260902074403 64 173 0.0 6.0 0.00 0.00 0.00 84 1016.7
20260902073403 65 117 0.0 6.0 0.00 0.00 0.00 84 1016.7
20260902072404 64 181 0.0 6.0 0.00 0.00 0.00 84 1016.8
20260902071403 64 170 0.0 5.0 0.00 0.00 0.00 85 1016.8
20260902070424 64 88 0.0 7.0 0.00 0.00 0.00 84 1016.9
20260902065403 64 122 0.0 7.0 0.00 0.00 0.00 85 1016.8
20260902064403 64 150 0.0 3.0 0.00 0.00 0.00 85 1016.8
20260902063403 64 167 0.0 6.0 0.00 0.00 0.00 86 1016.9
20260902062403 63 159 0.0 5.0 0.00 0.00 0.00 86 1016.9
20260902061403 63 122 0.0 1.0 0.00 0.00 0.00 86 1016.9
20260902055404 63 91 0.0 4.0 0.00 0.00 0.00 87 1016.8
20260902054403 62 155 0.0 3.0 0.00 0.00 0.00 87 1016.7
20260902053403 62 156 0.0 0.0 0.00 0.00 0.00 88 1016.6
20260902052424 62 156 0.0 0.0 0.00 0.00 0.00 87 1016.7
20260902051403 62 156 0.0 2.0 0.00 0.00 0.00 87 1016.8
20260902050425 62 156 0.0 3.0 0.00 0.00 0.00 87 1016.8
20260902045424 62 155 0.0 1.0 0.00 0.00 0.00 87 1016.7
20260902044403 62 155 0.0 0.0 0.00 0.00 0.00 88 1016.7
20260902043403 63 155 0.0 3.0 0.00 0.00 0.00 88 1016.7
20260902042404 63 155 0.0 0.0 0.00 0.00 0.00 87 1016.7
20260902040403 63 155 0.0 0.0 0.00 0.00 0.00 86 1016.5
20260902035404 63 155 0.0 1.0 0.00 0.00 0.00 85 1016.3
20260902034403 64 155 0.0 0.0 0.00 0.00 0.00 84 1016.0
20260902033404 64 155 0.0 2.0 0.00 0.00 0.00 83 1016.0
20260902032403 64 154 0.0 3.0 0.00 0.00 0.00 83 1016.0
20260902031404 65 136 0.0 4.0 0.00 0.00 0.00 83 1015.9
20260902030403 65 164 1.0 5.0 0.00 0.00 0.00 82 1015.8
20260902025403 65 148 0.0 8.0 0.00 0.00 0.00 82 1015.7
20260902024403 65 94 1.0 8.0 0.00 0.00 0.00 83 1015.6
20260902023402 65 172 1.0 7.0 0.00 0.00 0.00 83 1015.6
20260902022403 65 179 1.0 5.0 0.00 0.00 0.00 84 1015.5
20260902021404 65 165 0.0 6.0 0.00 0.00 0.00 84 1015.7
20260902020425 64 176 0.0 5.0 0.00 0.00 0.00 84 1015.6
20260902015403 65 201 0.0 7.0 0.00 0.00 0.00 84 1015.7
20260902014403 65 164 1.0 7.0 0.00 0.00 0.00 84 1015.7
20260902013403 65 180 0.0 3.0 0.00 0.00 0.00 84 1015.7
20260902012403 65 187 0.0 5.0 0.00 0.00 0.00 84 1015.7
20260902011403 65 189 0.0 2.0 0.00 0.00 0.00 85 1015.7
20260902010403 65 181 0.0 7.0 0.00 0.00 0.00 85 1015.7
20260902005404 65 157 0.0 2.0 0.00 0.00 0.00 85 1015.7
20260902004403 65 157 0.0 1.0 0.00 0.00 0.00 85 1015.6
20260902003404 65 152 0.0 2.0 0.00 0.00 0.00 85 1015.5
20260902002403 66 216 0.0 2.0 0.00 0.00 0.00 85 1015.3
20260902001403 66 218 0.0 0.0 0.00 0.00 0.00 85 1015.3
20260902000403 66 218 0.0 0.0 0.00 0.00 0.00 85 1015.3
20260901235403 67 218 0.0 0.0 0.00 0.00 0.00 85 1015.4
20260901234403 67 218 0.0 0.0 0.00 0.00 0.00 84 1015.6
20260901233403 68 218 0.0 0.0 0.00 0.00 0.00 84 1015.6
20260901232403 68 218 0.0 0.0 0.00 0.00 0.00 83 1015.5
20260901231403 69 218 0.0 0.0 0.00 0.00 0.00 83 1015.4
20260901230424 70 218 0.0 0.0 0.00 0.00 0.00 82 1015.5
20260901225403 70 218 0.0 0.0 0.00 0.00 0.00 80 1015.4
20260901224403 71 218 0.0 0.0 0.00 0.00 0.00 80 1015.3
20260901223403 71 218 0.0 0.0 0.00 0.00 0.00 79 1015.1
20260901222403 72 218 0.0 0.0 0.00 0.00 0.00 78 1015.1
20260901221424 72 218 0.0 0.0 0.00 0.00 0.00 79 1015.0
20260901220403 73 218 0.0 0.0 0.00 0.00 0.00 77 1014.9
20260901215403 73 218 0.0 0.0 0.00 0.00 0.00 75 1014.9
20260901214403 73 218 0.0 1.0 0.00 0.00 0.00 74 1014.7
20260901213403 73 218 0.0 3.0 0.00 0.00 0.00 73 1014.9
20260901212403 74 217 0.0 0.0 0.00 0.00 0.00 74 1014.9
20260901211403 74 216 0.0 2.0 0.00 0.00 0.00 69 1014.9
20260901210403 75 215 1.0 2.0 0.00 0.00 0.00 67 1015.0
20260901205424 76 215 0.0 3.0 0.00 0.00 0.00 71 1014.9
20260901204403 77 213 0.0 4.0 0.00 0.00 0.00 65 1014.7
20260901203403 79 207 1.0 7.0 0.00 0.00 0.00 59 1014.6
20260901202403 80 241 0.0 5.0 0.00 0.00 0.00 63 1014.4
20260901201402 79 262 0.0 6.0 0.00 0.00 0.00 66 1014.4
20260901200403 79 335 1.0 3.0 0.00 0.00 0.00 65 1014.4
20260901195403 78 355 0.0 3.0 0.00 0.00 0.00 67 1014.3
20260901194406 77 15 0.0 3.0 0.00 0.00 0.00 66 1014.5
20260901193403 77 13 0.0 1.0 0.00 0.00 0.00 69 1014.6
20260901192402 76 13 0.0 4.0 0.00 0.00 0.00 64 1014.5
20260901191403 76 13 0.0 3.0 0.00 0.00 0.00 60 1014.5
20260901190403 77 359 1.0 4.0 0.00 0.00 0.00 58 1014.5
20260901185403 78 354 0.0 5.0 0.00 0.00 0.00 60 1014.6
20260901184402 79 348 2.0 5.0 0.00 0.00 0.00 59 1014.5
20260901183403 79 300 1.0 4.0 0.00 0.00 0.00 55 1014.6
20260901182402 79 256 0.0 6.0 0.00 0.00 0.00 63 1014.8
20260901181403 78 22 0.0 4.0 0.00 0.00 0.00 56 1015.0
20260901180424 79 25 0.0 5.0 0.00 0.00 0.00 61 1014.9
20260901175403 79 15 2.0 8.0 0.00 0.00 0.00 58 1014.9
20260901174402 79 357 2.0 5.0 0.00 0.00 0.00 55 1014.8
20260901172530 78 355 0.0 2.0 0.00 0.00 0.00 60 1014.8
20260901171403 78 7 1.0 5.0 0.00 0.00 0.00 60 1014.9
20260901170403 77 329 1.0 5.0 0.00 0.00 0.00 59 1014.9
20260901165402 76 328 0.0 9.0 0.00 0.00 0.00 60 1015.0
20260901164403 77 72 0.0 4.0 0.00 0.00 0.00 59 1015.2
20260901163403 77 67 3.0 5.0 0.00 0.00 0.00 60 1015.3
20260901161403 75 61 0.0 2.0 0.00 0.00 0.00 57 1015.5
20260901160402 75 66 0.0 3.0 0.00 0.00 0.00 62 1015.6
20260901155402 76 67 0.0 4.0 0.00 0.00 0.00 60 1015.5